Location: Maccacari
(45.1333°N, 11.1333°E)
Time: 20:20:59
(UTC+00:00)

ISS - Visible Passes

Search period start: 30 November 2020 00:00
Search period end: 10 December 2020 00:00
Orbit: 418 x 420 km, 51.6° (Epoch: 01 December)

Date Brightness Start Highest point End Pass type
(mag) Time Alt. Az. Time Alt. Az. Time Alt. Az.
30 Nov -2.4 17:15:33 10° NW 17:18:29 26° N 17:18:36 26° N visible
01 Dec -2.3 16:27:51 10° WNW 16:30:45 26° N 16:32:58 14° NE visible
01 Dec -1.2 18:04:51 10° NW 18:05:55 18° NW 18:05:55 18° NW visible
02 Dec -2.8 17:17:17 10° NW 17:20:20 34° NNE 17:20:20 34° NNE visible
03 Dec -2.6 16:29:41 10° NW 16:32:42 29° N 16:34:48 16° ENE visible
03 Dec -1.4 18:06:26 10° WNW 18:07:46 22° WNW 18:07:46 22° WNW visible
04 Dec -3.8 17:18:52 10° NW 17:22:12 59° NNE 17:22:20 58° NE visible
05 Dec -3.3 16:31:17 10° NW 16:34:32 43° NNE 16:37:00 15° E visible
05 Dec -1.5 18:08:09 10° WNW 18:10:00 26° W 18:10:00 26° W visible
06 Dec -3.3 17:20:26 10° WNW 17:23:46 61° SW 17:24:52 36° SSE visible
07 Dec -3.8 16:32:47 10° WNW 16:36:10 87° NNE 16:39:31 10° ESE visible
07 Dec -0.9 18:10:33 10° W 18:12:33 15° SW 18:13:00 15° SW visible
08 Dec -1.4 17:22:19 10° W 17:25:05 24° SW 17:27:50 10° SSE visible
09 Dec -2.2 16:34:25 10° WNW 16:37:34 37° SW 16:40:42 10° SSE visible
